GW5874 Weather Reports


time (UTC)temp
F
wind
direction
speed
knots
gust
knots
rain 1hr
in
rain 24hr
in
rain mn
in
humidity
%
barometer
mb
20260906184246 77 280 3.5 4.3 0.00 0.06 0.06 81 1013.9
20260906183741 75 48 1.7 2.6 0.05 0.06 0.06 86 1013.8
20260906183238 76 10 1.7 2.6 0.12 0.06 0.06 83 1014.1
20260906182738 76 300 1.7 2.6 0.07 0.05 0.05 83 1014.2
20260906182234 77 314 1.7 3.5 0.00 0.04 0.04 76 1014.2
20260906181729 79 92 1.7 2.6 0.12 0.04 0.04 78 1014.2
20260906181225 81 273 6.1 9.6 0.24 0.04 0.04 69 1014.2
20260906180719 84 131 1.7 3.5 0.12 0.02 0.02 70 1014.2
20260906180214 92 206 1.7 3.5 0.00 0.00 0.00 57 1014.5
20260906175712 103 291 6.1 7.0 0.00 0.00 0.00 37 1014.2
20260906175208 104 207 0.0 0.0 0.00 0.00 0.00 35 1014.0
20260906174706 103 232 0.0 0.0 0.00 0.00 0.00 36 1014.2
20260906174201 99 200 0.0 0.0 0.00 0.00 0.00 40 1014.2
20260906173656 100 253 0.0 0.0 0.00 0.00 0.00 42 1014.5
20260906173152 101 195 0.0 0.0 0.00 0.00 0.00 39 1014.3
20260906172651 102 233 0.0 0.0 0.00 0.00 0.00 38 1014.4
20260906172147 102 249 0.0 0.0 0.00 0.00 0.00 37 1014.8
20260906171647 101 265 0.0 0.0 0.00 0.00 0.00 38 1014.8
20260906171142 101 261 0.0 0.0 0.00 0.00 0.00 38 1014.8
20260906170638 100 275 0.0 0.0 0.00 0.00 0.00 39 1014.9
20260906170137 102 259 0.0 0.0 0.00 0.00 0.00 38 1014.9
20260906165634 101 2 0.0 0.0 0.00 0.00 0.00 38 1014.9
20260906165129 100 268 0.0 0.0 0.00 0.00 0.00 38 1015.1
20260906164627 99 241 0.0 0.0 0.00 0.00 0.00 39 1015.2
20260906164123 99 293 0.0 0.0 0.00 0.00 0.00 39 1015.4
20260906163619 100 253 0.0 0.0 0.00 0.00 0.00 39 1015.1
20260906163115 100 295 0.0 0.0 0.00 0.00 0.00 38 1015.5
20260906162612 98 256 0.0 0.0 0.00 0.00 0.00 41 1015.2
20260906162107 100 275 0.0 0.0 0.00 0.00 0.00 39 1015.2
20260906161607 100 349 0.0 0.0 0.00 0.00 0.00 38 1015.3
20260906161105 98 257 0.0 0.0 0.00 0.00 0.00 40 1015.2
20260906160604 99 243 0.0 0.0 0.00 0.00 0.00 40 1015.3
20260906160103 98 255 0.0 0.0 0.00 0.00 0.00 40 1015.3
20260906155601 96 261 0.0 0.0 0.00 0.00 0.00 46 1015.5
20260906155058 97 313 0.0 0.0 0.00 0.00 0.00 43 1015.3
20260906154552 98 302 0.0 0.0 0.00 0.00 0.00 44 1015.1
20260906154051 97 250 0.0 0.0 0.00 0.00 0.00 45 1015.4
20260906153550 96 171 0.0 0.0 0.00 0.00 0.00 47 1015.0
20260906153045 96 206 0.0 0.0 0.00 0.00 0.00 48 1015.3
20260906152545 95 182 0.0 0.0 0.00 0.00 0.00 51 1015.3
20260906152044 93 309 0.0 0.0 0.00 0.00 0.00 51 1015.1
20260906151540 93 195 0.0 0.0 0.00 0.00 0.00 51 1015.3
20260906151036 93 189 0.0 0.0 0.00 0.00 0.00 52 1015.3
20260906150531 93 211 0.0 0.0 0.00 0.00 0.00 53 1015.5
20260906150026 91 74 0.0 0.0 0.00 0.00 0.00 54 1015.2
20260906145524 90 207 0.0 0.0 0.00 0.00 0.00 55 1015.4
20260906145020 90 124 0.0 0.0 0.00 0.00 0.00 58 1015.4
20260906144515 89 201 0.0 0.0 0.00 0.00 0.00 58 1015.4
20260906144010 87 234 0.0 0.0 0.00 0.00 0.00 61 1015.6
20260906143505 87 207 0.0 0.0 0.00 0.00 0.00 60 1015.4
20260906143002 86 227 0.0 0.0 0.00 0.00 0.00 61 1015.5
20260906142500 87 205 0.0 0.0 0.00 0.00 0.00 60 1015.5
20260906141955 88 246 0.0 0.0 0.00 0.00 0.00 58 1015.6
20260906141454 87 199 0.0 0.0 0.00 0.00 0.00 60 1015.5
20260906140950 85 219 0.0 0.0 0.00 0.00 0.00 63 1015.4
20260906140444 85 313 0.0 0.0 0.00 0.00 0.00 64 1015.4
20260906135942 85 262 0.0 0.0 0.00 0.00 0.00 64 1015.6
20260906135441 86 246 0.0 0.0 0.00 0.00 0.00 63 1015.3
20260906134937 83 174 0.0 0.0 0.00 0.00 0.00 67 1015.2
20260906134432 82 194 0.0 0.0 0.00 0.00 0.00 69 1015.2
20260906133927 81 270 0.0 0.0 0.00 0.00 0.00 71 1015.2
20260906133423 81 212 0.0 0.0 0.00 0.00 0.00 71 1015.2
20260906132919 80 200 0.0 0.0 0.00 0.00 0.00 73 1015.2
20260906132414 79 250 0.0 0.0 0.00 0.00 0.00 76 1015.1
20260906131909 77 241 0.0 0.0 0.00 0.00 0.00 80 1015.0
20260906131404 77 293 0.0 0.0 0.00 0.00 0.00 82 1014.9
20260906130900 75 250 0.0 0.0 0.00 0.00 0.00 88 1015.1
20260906130359 73 250 0.0 0.0 0.00 0.00 0.00 92 1014.9
20260906125859 71 258 0.0 0.0 0.00 0.00 0.00 93 1014.9
20260906125356 71 277 0.0 0.0 0.00 0.00 0.00 94 1014.7
20260906124851 70 279 0.0 0.0 0.00 0.00 0.00 94 1014.7
20260906124347 70 272 0.0 0.0 0.00 0.00 0.00 95 1014.7
20260906123846 69 273 0.0 0.0 0.00 0.00 0.00 95 1014.7
20260906123341 69 264 0.0 0.0 0.00 0.00 0.00 95 1014.8
20260906122840 69 277 0.0 0.0 0.00 0.00 0.00 95 1014.5
20260906122335 69 285 0.0 0.0 0.00 0.00 0.00 95 1014.6
20260906121832 69 288 0.0 0.0 0.00 0.00 0.00 95 1014.4
20260906121328 69 253 0.0 0.0 0.00 0.00 0.00 95 1014.7
20260906120824 69 261 0.0 0.0 0.00 0.00 0.00 95 1014.4
20260906120320 69 280 0.0 0.0 0.00 0.00 0.00 95 1014.5
20260906115816 69 275 0.0 0.0 0.00 0.00 0.00 95 1014.4
20260906115311 69 254 0.0 0.0 0.00 0.00 0.00 95 1014.4
20260906114810 69 245 0.0 0.0 0.00 0.00 0.00 95 1014.2
20260906114306 69 279 0.0 0.0 0.00 0.00 0.00 94 1014.3
20260906113806 69 270 0.0 0.0 0.00 0.00 0.00 94 1014.4
20260906113305 69 283 0.0 0.0 0.00 0.00 0.00 94 1014.3
20260906112800 69 269 0.0 0.0 0.00 0.00 0.00 94 1014.3
20260906112257 69 261 0.0 0.0 0.00 0.00 0.00 94 1014.2
20260906111756 69 279 0.0 0.0 0.00 0.00 0.00 94 1014.4
20260906111255 69 282 0.0 0.0 0.00 0.00 0.00 94 1014.2
20260906110751 69 292 0.0 0.0 0.00 0.00 0.00 94 1014.2
20260906110247 69 259 0.0 0.0 0.00 0.00 0.00 94 1014.0
20260906105745 69 256 0.0 0.0 0.00 0.00 0.00 94 1014.1
20260906105241 69 265 0.0 0.0 0.00 0.00 0.00 94 1014.0
20260906104736 69 265 0.0 0.0 0.00 0.00 0.00 94 1014.0
20260906104235 69 265 0.0 0.0 0.00 0.00 0.00 93 1013.9
20260906103734 69 274 0.0 0.0 0.00 0.00 0.00 93 1014.1
20260906103234 69 273 0.0 0.0 0.00 0.00 0.00 93 1014.0
20260906102729 69 273 0.0 0.0 0.00 0.00 0.00 93 1013.9
20260906102228 69 273 0.0 0.0 0.00 0.00 0.00 93 1014.0
20260906101724 69 270 0.0 0.0 0.00 0.00 0.00 93 1014.0
20260906101213 69 259 0.0 0.0 0.00 0.00 0.00 93 1014.0
20260906100708 70 259 0.0 0.0 0.00 0.00 0.00 92 1013.8
20260906100203 70 282 0.0 0.0 0.00 0.00 0.00 92 1013.9
20260906095703 70 284 0.0 0.0 0.00 0.00 0.00 92 1013.7
20260906095158 69 274 0.0 0.0 0.00 0.00 0.00 92 1013.9
20260906094657 70 268 0.0 0.0 0.00 0.00 0.00 92 1013.9
20260906094153 70 265 0.0 0.0 0.00 0.00 0.00 92 1013.7
20260906093650 70 266 0.0 0.0 0.00 0.00 0.00 92 1013.8
20260906093149 70 266 0.0 0.0 0.00 0.00 0.00 92 1013.8
20260906092645 70 266 0.0 0.0 0.00 0.00 0.00 92 1013.7
20260906092144 70 273 0.0 0.0 0.00 0.00 0.00 91 1013.7
20260906091641 70 252 0.0 0.0 0.00 0.00 0.00 91 1013.8
20260906091137 70 281 0.0 0.0 0.00 0.00 0.00 91 1013.6
20260906090632 70 258 0.0 0.0 0.00 0.00 0.00 91 1013.5
20260906090126 70 272 0.0 0.0 0.00 0.00 0.00 91 1013.5
20260906085626 71 271 0.0 0.0 0.00 0.00 0.00 91 1013.4
20260906085120 71 273 0.0 0.0 0.00 0.00 0.00 91 1013.3
20260906084615 71 276 0.0 0.0 0.00 0.00 0.00 90 1013.3
20260906084114 71 235 0.0 0.0 0.00 0.00 0.00 90 1013.4
20260906083610 71 278 0.0 0.0 0.00 0.00 0.00 90 1013.4
20260906083109 71 272 0.0 0.0 0.00 0.00 0.00 90 1013.4
20260906082605 71 248 0.0 0.0 0.00 0.00 0.00 90 1013.1
20260906082100 71 262 0.0 0.0 0.00 0.00 0.00 89 1013.2
20260906081556 71 261 0.0 0.0 0.00 0.00 0.00 89 1013.2
20260906081051 71 278 0.0 0.0 0.00 0.00 0.00 89 1013.3
20260906080548 71 277 0.0 0.0 0.00 0.00 0.00 89 1013.3
20260906080043 71 255 0.0 0.0 0.00 0.00 0.00 89 1013.2
20260906075543 71 252 0.0 0.0 0.00 0.00 0.00 89 1013.2
20260906075037 72 252 0.0 0.0 0.00 0.00 0.00 88 1013.1
20260906074532 72 268 0.0 0.0 0.00 0.00 0.00 88 1013.5
20260906074031 72 280 0.0 0.0 0.00 0.00 0.00 88 1013.4
20260906073526 72 33 0.0 0.0 0.00 0.00 0.00 87 1013.2
20260906073022 72 253 0.0 0.0 0.00 0.00 0.00 87 1013.5
20260906072517 72 281 0.0 0.0 0.00 0.00 0.00 87 1013.5
20260906072013 72 273 0.0 0.0 0.00 0.00 0.00 87 1013.6
20260906071509 72 265 0.0 0.0 0.00 0.00 0.00 87 1013.3
20260906071004 72 245 0.0 0.0 0.00 0.00 0.00 87 1013.5
20260906070500 72 278 0.0 0.0 0.00 0.00 0.00 87 1013.7
20260906065956 72 273 0.0 0.0 0.00 0.00 0.00 86 1013.4
20260906065455 73 256 0.0 0.0 0.00 0.00 0.00 86 1013.4
20260906064951 73 283 0.0 0.0 0.00 0.00 0.00 86 1013.6
20260906064448 73 285 0.0 0.0 0.00 0.00 0.00 86 1013.7
20260906063947 73 253 0.0 0.0 0.00 0.00 0.00 86 1013.5
20260906063443 73 260 0.0 0.0 0.00 0.00 0.00 86 1013.6
20260906062943 73 252 0.0 0.0 0.00 0.00 0.00 86 1013.5
20260906062438 73 246 0.0 0.0 0.00 0.00 0.00 86 1013.5
20260906061934 73 287 0.0 0.0 0.00 0.00 0.00 86 1013.5
20260906061430 73 281 0.0 0.0 0.00 0.00 0.00 85 1013.6
20260906060930 73 246 0.0 0.0 0.00 0.00 0.00 85 1013.7
20260906060427 73 236 0.0 0.0 0.00 0.00 0.00 85 1013.5
20260906055923 73 279 0.0 0.0 0.00 0.00 0.00 85 1013.5
20260906055419 73 246 0.0 0.0 0.00 0.00 0.00 85 1013.7
20260906054914 74 268 0.0 0.0 0.00 0.00 0.00 84 1013.5
20260906054408 74 270 0.0 0.0 0.00 0.00 0.00 84 1013.6
20260906053905 74 270 0.0 0.0 0.00 0.00 0.00 84 1013.5
20260906053400 74 266 0.0 0.0 0.00 0.00 0.00 83 1013.7
20260906052856 74 283 0.0 0.0 0.00 0.00 0.00 83 1013.5
20260906052352 74 258 0.0 0.0 0.00 0.00 0.00 83 1013.5
20260906051849 74 257 0.0 0.0 0.00 0.00 0.00 83 1013.5
20260906051348 74 269 0.0 0.0 0.00 0.00 0.00 82 1013.4
20260906050844 75 268 0.0 0.0 0.00 0.00 0.00 82 1013.5
20260906050339 75 264 0.0 0.0 0.00 0.00 0.00 82 1013.5
20260906045838 75 284 0.0 0.0 0.00 0.00 0.00 82 1013.5
20260906045332 75 228 0.0 0.0 0.00 0.00 0.00 82 1013.3
20260906044829 75 250 0.0 0.0 0.00 0.00 0.00 81 1013.5
20260906044328 76 279 0.0 0.0 0.00 0.00 0.00 80 1013.4
20260906043826 75 281 0.0 0.0 0.00 0.00 0.00 81 1013.4
20260906043320 76 247 0.0 0.0 0.00 0.00 0.00 80 1013.6
20260906042820 76 272 0.0 0.0 0.00 0.00 0.00 80 1013.6
20260906042319 76 281 0.0 0.0 0.00 0.00 0.00 80 1013.6
20260906041815 76 282 0.0 0.0 0.00 0.00 0.00 80 1013.6
20260906041310 76 275 0.0 0.0 0.00 0.00 0.00 80 1013.5
20260906040805 76 255 0.0 0.0 0.00 0.00 0.00 80 1013.6
20260906040301 76 249 0.0 0.0 0.00 0.00 0.00 79 1013.4
20260906035756 76 265 0.0 0.0 0.00 0.00 0.00 78 1013.5
20260906035252 77 264 0.0 0.0 0.00 0.00 0.00 78 1013.6
20260906034751 77 256 0.0 0.0 0.00 0.00 0.00 77 1013.2
20260906034246 77 296 0.0 0.0 0.00 0.00 0.00 78 1013.2
20260906033742 77 255 0.0 0.0 0.00 0.00 0.00 77 1013.4
20260906033241 77 252 0.0 0.0 0.00 0.00 0.00 77 1013.1
20260906032738 77 272 0.0 0.0 0.00 0.00 0.00 77 1013.2
20260906032238 78 258 0.0 0.0 0.00 0.00 0.00 77 1013.1
20260906031733 78 270 0.0 0.0 0.00 0.00 0.00 76 1013.2
20260906031229 78 290 0.0 0.0 0.00 0.00 0.00 75 1013.1
20260906030729 78 307 0.0 0.0 0.00 0.00 0.00 75 1013.2
20260906030224 78 260 0.0 0.0 0.00 0.00 0.00 75 1013.4
20260906025723 78 268 0.0 0.0 0.00 0.00 0.00 74 1013.2
20260906025218 78 263 0.0 0.0 0.00 0.00 0.00 75 1013.1
20260906024717 78 263 0.0 0.0 0.00 0.00 0.00 74 1013.0
20260906024216 78 263 0.0 0.0 0.00 0.00 0.00 74 1013.0
20260906023712 79 267 0.0 0.0 0.00 0.00 0.00 73 1012.8
20260906023212 79 264 0.0 0.0 0.00 0.00 0.00 73 1013.0
20260906022708 79 280 0.0 0.0 0.00 0.00 0.00 73 1012.7
20260906022203 79 273 0.0 0.0 0.00 0.00 0.00 72 1012.7
20260906021659 80 272 0.0 0.0 0.00 0.00 0.00 72 1012.6
20260906021158 80 272 0.0 0.0 0.00 0.00 0.00 71 1012.5
20260906020653 80 271 0.0 0.0 0.00 0.00 0.00 71 1012.5
20260906020148 80 273 0.0 0.0 0.00 0.00 0.00 71 1012.2
20260906015648 81 271 0.0 0.0 0.00 0.00 0.00 71 1012.5
20260906015147 81 283 0.0 0.0 0.00 0.00 0.00 70 1012.5
20260906014646 81 268 0.0 0.0 0.00 0.00 0.00 69 1012.3
20260906014143 82 263 0.0 0.0 0.00 0.00 0.00 69 1012.1
20260906013638 82 283 0.0 0.0 0.00 0.00 0.00 68 1012.2
20260906013134 82 287 0.0 0.0 0.00 0.00 0.00 68 1012.2
20260906012633 82 278 0.0 0.0 0.00 0.00 0.00 67 1012.0
20260906012128 83 278 0.0 0.0 0.00 0.00 0.00 67 1011.9
20260906011624 83 256 0.0 0.0 0.00 0.00 0.00 66 1012.1
20260906011125 84 281 0.0 0.0 0.00 0.00 0.00 65 1011.9
20260906010620 84 276 0.0 0.0 0.00 0.00 0.00 64 1011.7
20260906010116 84 277 0.0 0.0 0.00 0.00 0.00 63 1011.7
20260906005615 85 240 0.0 0.0 0.00 0.00 0.00 64 1011.7
20260906005115 86 287 0.0 0.0 0.00 0.00 0.00 60 1011.7
20260906004614 87 285 0.0 0.0 0.00 0.00 0.00 59 1011.6
20260906004109 88 277 0.0 0.0 0.00 0.00 0.00 58 1011.6
20260906003604 88 283 0.0 0.0 0.00 0.00 0.00 57 1011.7
20260906003101 89 275 0.0 0.0 0.00 0.00 0.00 57 1011.8
20260906002601 89 257 0.0 0.0 0.00 0.00 0.00 55 1011.7
20260906002055 90 237 0.0 0.0 0.00 0.00 0.00 53 1011.6
20260906001550 91 254 0.0 0.0 0.00 0.00 0.00 53 1011.6
20260906001045 93 262 0.0 0.0 0.00 0.00 0.00 48 1011.7
20260906000541 95 269 0.0 0.0 0.00 0.00 0.00 43 1011.9
20260906000036 96 273 0.0 0.0 0.00 0.00 0.00 41 1011.7
20260905235536 97 271 0.0 0.0 0.00 0.00 0.00 39 1011.8
20260905235031 99 270 0.0 0.0 0.00 0.00 0.00 37 1011.8
20260905234526 100 289 0.0 0.0 0.00 0.00 0.00 36 1011.9
20260905234026 100 268 0.0 0.0 0.00 0.00 0.00 35 1011.5
20260905233521 100 283 0.9 0.9 0.00 0.00 0.00 35 1011.6
20260905233021 100 244 0.9 0.9 0.00 0.00 0.00 35 1011.7
20260905232516 100 280 0.0 0.9 0.00 0.00 0.00 34 1011.7
20260905232012 100 262 0.0 0.0 0.00 0.00 0.00 34 1011.8
20260905231507 101 209 0.9 0.9 0.00 0.00 0.00 36 1011.8
20260905231004 101 315 0.0 0.9 0.00 0.00 0.00 35 1011.7
20260905230502 101 223 0.9 0.9 0.00 0.00 0.00 35 1011.5
20260905230000 101 268 0.9 0.9 0.00 0.00 0.00 36 1011.6
20260905225456 102 269 1.7 2.6 0.00 0.00 0.00 33 1011.7
20260905224950 102 258 1.7 2.6 0.00 0.00 0.00 32 1011.7
20260905224446 102 239 0.9 0.9 0.00 0.00 0.00 33 1011.6
20260905223945 101 276 0.9 0.9 0.00 0.00 0.00 35 1011.7
20260905223443 102 312 1.7 3.5 0.00 0.00 0.00 34 1011.5
20260905222938 102 226 1.7 2.6 0.00 0.00 0.00 33 1011.6
20260905222438 101 275 0.0 0.9 0.00 0.00 0.00 34 1011.6
20260905221933 101 232 1.7 2.6 0.00 0.00 0.00 33 1011.7
20260905221430 101 184 1.7 2.6 0.00 0.00 0.00 34 1011.7
20260905220926 102 107 0.9 2.6 0.00 0.00 0.00 34 1011.8
20260905220422 102 300 0.9 0.9 0.00 0.00 0.00 34 1011.9
20260905215920 102 209 3.5 3.5 0.00 0.00 0.00 34 1011.8
20260905215416 102 244 2.6 3.5 0.00 0.00 0.00 34 1011.9
20260905214913 101 222 1.7 2.6 0.00 0.00 0.00 34 1011.9
20260905214408 101 203 1.7 2.6 0.00 0.00 0.00 34 1011.8
20260905213908 102 237 3.5 3.5 0.00 0.00 0.00 34 1012.0
20260905213404 102 185 4.3 4.3 0.00 0.00 0.00 34 1011.9
20260905212859 102 233 2.6 3.5 0.00 0.00 0.00 34 1011.9
20260905212354 102 225 1.7 2.6 0.00 0.00 0.00 35 1012.1
20260905211853 102 231 0.9 0.9 0.00 0.00 0.00 33 1012.1
20260905211349 102 209 3.5 3.5 0.00 0.00 0.00 33 1012.0
20260905210845 101 224 2.6 3.5 0.00 0.00 0.00 34 1012.5
20260905210345 100 151 0.9 2.6 0.00 0.00 0.00 35 1012.4
20260905205844 101 250 0.9 0.9 0.00 0.00 0.00 35 1012.6
20260905205339 103 177 2.6 2.6 0.00 0.00 0.00 34 1012.6
20260905204838 102 207 2.6 3.5 0.00 0.00 0.00 34 1012.7
20260905204335 102 211 3.5 3.5 0.00 0.00 0.00 33 1012.8
20260905203833 102 210 2.6 3.5 0.00 0.00 0.00 34 1013.0
20260905203329 102 195 3.5 3.5 0.00 0.00 0.00 34 1013.1
20260905202825 102 170 2.6 3.5 0.00 0.00 0.00 34 1013.0
20260905202319 101 55 2.6 2.6 0.00 0.00 0.00 35 1013.2
20260905201815 101 91 2.6 3.5 0.00 0.00 0.00 36 1013.3
20260905201311 101 25 2.6 3.5 0.00 0.00 0.00 35 1013.3
20260905200810 103 37 2.6 3.5 0.00 0.00 0.00 34 1013.5
20260905200307 102 185 1.7 3.5 0.00 0.00 0.00 34 1013.5
20260905195804 102 194 1.7 2.6 0.00 0.00 0.00 35 1013.6
20260905195259 103 263 1.7 2.6 0.00 0.00 0.00 34 1013.5
20260905194755 102 215 0.9 0.9 0.00 0.00 0.00 36 1013.6
20260905194255 99 267 0.0 0.9 0.00 0.00 0.00 36 1013.6
20260905193754 97 285 0.9 0.9 0.00 0.00 0.00 38 1013.9
20260905193249 98 218 0.9 0.9 0.00 0.00 0.00 39 1013.8
20260905192744 98 51 0.0 0.9 0.00 0.00 0.00 39 1013.9
20260905192241 99 213 1.7 2.6 0.00 0.00 0.00 38 1014.0
20260905191740 101 220 0.9 0.9 0.00 0.00 0.00 36 1013.9
20260905191238 101 187 2.6 3.5 0.00 0.00 0.00 37 1014.0
20260905190737 101 194 3.5 3.5 0.00 0.00 0.00 35 1014.3
20260905190237 101 317 3.5 3.5 0.00 0.00 0.00 37 1014.1
20260905185736 100 209 4.3 4.3 0.00 0.00 0.00 36 1014.3
20260905185231 99 186 1.7 2.6 0.00 0.00 0.00 38 1014.3
20260905184731 100 188 2.6 3.5 0.00 0.00 0.00 36 1014.5